sat.trackr.live / text

‹ back to catalog

EXPRESS-AM7

NORAD 40505 · 2015-012A

PAYLOAD ACTIVE UNKNOWN

§ Identity

Operator
Country
CIS
Launch date
2015-03-18
Launch site
TYMSC
Launch vehicle
Mass (kg)
RCS (m²)
12.91

Purposes: comms

External: N2YO · Heavens-Above · Gunter

§ Orbital elements

Epoch: 2026-05-25T03:56:01.169088Z

Period
1,436.06 min
Inclination
0.0316°
Eccentricity
0.0003112
Mean motion
1.00274284 rev/d
Perigee alt
35,772.8 km
Apogee alt
35,799.0 km
Semi-major
42,164.0 km
B*
0.0000e+0
RAAN
108.9530°
Arg perigee
317.5585°
Mean anomaly
275.2508°
Rev number
4,077

§ Raw data

EXPRESS-AM71 40505U 15012A   26145.16390242  .00000148  00000+0  00000+0 0  99992 40505   0.0316 108.9530 0003112 317.5585 275.2508  1.00274284 40778

JSON: /api/v1/satellites/40505 · /tle

For live sub-satellite position, see the globe view (requires WebGL).

§ Visibility from observer

Set your observer location to see the next 7 days of passes ≥ 10°. The values pass through the URL so the page stays shareable.

No JS? Fill the form by hand. The geolocation button needs JavaScript.